Weather in Akaroa

New Zealand     43°48′17″S   172°58′02″E
temp.,
°C
wind,
m/s
gust,
m/s
humid.,
%
clouds,
%
prec.,
mm/h
press.,
hPa
HPBL,
m
17 april, sat
sat1700:00+8ssw2693100 3.9 1006577
03:00+7sw3793100 1.3 1007331
06:00+7sw389088 1.9 1010610
09:00+8ssw388593 0.6 1012984
12:00+10sw355951 0.7 10121304
15:00+11ssw235214 0.0 10111229
18:00+6s11759 0.0 1012104
21:00+5e01875 0.0 101267
18 april, sun
sun1800:00+6nne239030 0.0 1012133
03:00+8n358168 0.0 1011570
06:00+7n229427 0.0 101170
09:00+10nnw22670 0.0 1012208
12:00+15nnw23430 0.0 1011599
15:00+14n24475 0.0 1009435
18:00+8n12925 0.0 101054
21:00+9wsw11795 0.0 101115
19 april, mon
mon1900:00+9w11725 0.0 101118
03:00+9w11696 0.0 101118
06:00+9sw11670 0.0 101216
09:00+14wnw01545 0.0 1014105
12:00+17ne21455 0.0 1014993
15:00+16ene224723 0.0 1014772
18:00+10ne118018 0.0 101538
21:00+9n119050 0.0 101627
20 april, tue
tue2000:00+9nnw1188100 0.0 101526
03:00+9wnw0183100 0.0 101513
06:00+9sw1179100 0.0 101511
09:00+13sse0165100 0.0 101589
12:00+17ene225387 0.0 1013808
15:00+16ne2258100 0.0 1010667
18:00+11nne2291100 0.0 100961
21:00+11wnw1171100 0.0 100821
21 april, wed
wed2100:00+11n0067100 0.0 100611
03:00+11sw1166100 0.0 100319
06:00+11wsw2269100 0.0 100247
09:00+11sw1278100 0.1 100165
12:00+14sw1264100 0.1 1000166
15:00+14sw1264100 0.0 999273
18:00+11sw117585 0.0 100023
21:00+9sw11805 0.0 100116